This is the latest recevied weather packets stored in our database for station/object LZ0VRC-10. If no packets are shown the sender has not sent any weather packets the latest 10 day(s).
| Time | Temp. | Humidity | Pressure | Rain* | Wind** | Luminosity | Snow |
|---|---|---|---|---|---|---|---|
| 1777466618 | 18.89° C | 39% | 1018.6 hPa | - | - | - | - |
| 1777466613 | 18.89° C | 39% | 1018.6 hPa | - | - | - | - |
| 1777465718 | 19.44° C | 36% | 1018.5 hPa | - | - | - | - |
| 1777465713 | 19.44° C | 36% | 1018.5 hPa | - | - | - | - |
| 1777464818 | 19.44° C | 31% | 1018.6 hPa | - | - | - | - |
| 1777464813 | 19.44° C | 31% | 1018.6 hPa | - | - | - | - |
| 1777463913 | 19.44° C | 33% | 1018.6 hPa | - | - | - | - |
| 1777463018 | 20° C | 36% | 1018.5 hPa | - | - | - | - |
| 1777463013 | 20° C | 36% | 1018.5 hPa | - | - | - | - |
| 1777462118 | 20.56° C | 36% | 1018.4 hPa | - | - | - | - |
| 1777462113 | 20.56° C | 36% | 1018.4 hPa | - | - | - | - |
| 1777461218 | 20° C | 36% | 1018.5 hPa | - | - | - | - |
| 1777461213 | 20° C | 36% | 1018.5 hPa | - | - | - | - |
| 1777460318 | 21.11° C | 37% | 1018.6 hPa | - | - | - | - |
| 1777460313 | 21.11° C | 37% | 1018.6 hPa | - | - | - | - |
| 1777459418 | 19.44° C | 45% | 1018.7 hPa | - | - | - | - |
| 1777459413 | 19.44° C | 45% | 1018.7 hPa | - | - | - | - |
| 1777458514 | 21.11° C | 43% | 1018.6 hPa | - | - | - | - |
| 1777457618 | 22.22° C | 37% | 1018.7 hPa | - | - | - | - |
| 1777457613 | 22.22° C | 37% | 1018.7 hPa | - | - | - | - |
| 1777456718 | 22.78° C | 36% | 1018.7 hPa | - | - | - | - |
| 1777456713 | 22.78° C | 36% | 1018.7 hPa | - | - | - | - |
| 1777455818 | 25.56° C | 31% | 1018.7 hPa | - | - | - | - |
| 1777455814 | 25.56° C | 31% | 1018.7 hPa | - | - | - | - |
| 1777454918 | 26.67° C | 30% | 1018.7 hPa | - | - | - | - |
* Rain since midnight (hover to see other rain measurements)
** Current wind speed in m/s (hover to see current wind gust speed)